Marathon, FL

12:17 AM EDT on September 24, 2017 (GMT -0400)
Florida Keys Marathon

Weather History for KMTH - November, 2013

Change the Weather History Date:

Wednesday, November 27, 2013

  Actual Average Record
Temperature  
Mean Temperature 74 °F 74 °F  
Max Temperature 80 °F 79 °F 85 °F (2007)
Min Temperature 67 °F 70 °F 60 °F (2014)
Degree Days  
Heating Degree Days 0 0  
Month to date heating degree days 0 0  
Since 1 July heating degree days 0 0  
Cooling Degree Days 9 10  
Month to date cooling degree days 382 298  
Year to date cooling degree days 5243 4737  
Growing Degree Days 24 (Base 50)    
Moisture  
Dew Point 69 °F    
Average Humidity 80    
Maximum Humidity 100    
Minimum Humidity 60    
Precipitation  
Precipitation 2.14 in 0.08 in 2.14 in (2013)
Month to date precipitation 6.06 2.59  
Year to date precipitation 49.57 43.92  
Snow  
Snow 0.00 in - - ()
Month to date snowfall 0.0  
Since 1 July snowfall 0.0  
Since 1 September snowfall 0.0  
Snow Depth 0.00 in    
Sea Level Pressure  
Sea Level Pressure 29.90 in    
Wind  
Wind Speed 11 mph (West)    
Max Wind Speed 28 mph    
Max Gust Speed 39 mph    
Visibility 6 miles    
Events Fog , Rain , Thunderstorm    
T = Trace of Precipitation, MM = Missing Value Source: NWS Daily Summary

Daily Weather History Graph

Daily Weather History Graph

Search for Another Location

Airport or City:

Trip Planner

Search our weather history database for the weather conditions in past years. The results will help you decide how hot, cold, wet, or windy it might be!

Date:

Astronomy

Nov. 27, 2013 Rise Set
Actual Time 6:49 AM EST 5:34 PM EST
Civil Twilight 6:24 AM EST 5:59 PM EST
Nautical Twilight 5:56 AM EST 6:27 PM EST
Astronomical Twilight 5:28 AM EST 6:54 PM EST
Moon 1:23 AM EST (11/27) 1:40 PM EST (11/27)
Length of Visible Light 11h 34m
Length of Day
10h 45m
Waning Crescent, 32% of the Moon is Illuminated
Nov 27
Waning Crescent
Dec 2
New
Dec 9
First Quarter
Dec 17
Full
Dec 25
Last Quarter

Hourly Weather History & Observations

Time (EST) Temp. Dew Point Humidity Pressure Visibility Wind Dir Wind Speed Gust Speed Precip Events Conditions
12:21 AM 73.9 °F 72.0 °F 93% 29.89 in 2.0 mi WSW 17.3 mph 28.8 mph 0.08 in Rain , Thunderstorm Heavy Thunderstorms and Rain
12:28 AM 73.0 °F 71.1 °F 93% 29.89 in 0.8 mi West 20.7 mph 29.9 mph 0.23 in Rain , Thunderstorm Heavy Thunderstorms and Rain
12:36 AM 72.0 °F 71.1 °F 97% 29.90 in 0.5 mi WSW 24.2 mph 39.1 mph 0.53 in Fog , Rain , Thunderstorm Heavy Thunderstorms and Rain
12:53 AM 73.0 °F 72.0 °F 96% 29.88 in 3.0 mi SW 5.8 mph - 0.81 in Rain , Thunderstorm Thunderstorms and Rain
1:16 AM 73.9 °F 72.0 °F 93% 29.86 in 10.0 mi WSW 3.5 mph - 0.00 in Thunderstorm Thunderstorm
1:19 AM 73.9 °F 72.0 °F 93% 29.86 in 10.0 mi West 5.8 mph - 0.00 in   Overcast
1:32 AM 73.9 °F 73.0 °F 97% 29.87 in 3.0 mi WSW 4.6 mph - 0.04 in Rain , Thunderstorm Rain
1:36 AM 73.9 °F 72.0 °F 93% 29.87 in 2.5 mi West 9.2 mph - 0.07 in Rain , Thunderstorm Thunderstorms and Rain
1:44 AM 72.0 °F 71.1 °F 97% 29.86 in 1.0 mi Variable 4.6 mph - 0.20 in Rain , Thunderstorm Heavy Thunderstorms and Rain
1:51 AM 71.6 °F 71.6 °F 100% 29.86 in 3.0 mi Variable 4.6 mph - 0.21 in Rain , Thunderstorm Light Thunderstorms and Rain
1:53 AM 72.0 °F 71.1 °F 97% 29.86 in 5.0 mi WSW 5.8 mph - 0.22 in Rain , Thunderstorm Light Thunderstorms and Rain
1:58 AM 72.0 °F 71.1 °F 97% 29.86 in 2.5 mi Variable 3.5 mph - 0.06 in Rain , Thunderstorm Heavy Thunderstorms and Rain
2:01 AM 72.0 °F 71.1 °F 97% 29.86 in 1.0 mi Variable 4.6 mph - 0.17 in Rain , Thunderstorm Heavy Thunderstorms and Rain
2:08 AM 71.1 °F 70.0 °F 96% 29.86 in 0.8 mi Variable 5.8 mph - 0.25 in Rain , Thunderstorm Heavy Thunderstorms and Rain
2:10 AM 71.1 °F 70.0 °F 96% 29.86 in 1.0 mi WSW 6.9 mph - 0.26 in Rain , Thunderstorm Heavy Rain
2:14 AM 72.0 °F 70.0 °F 93% 29.85 in 3.0 mi WSW 5.8 mph - 0.26 in Rain , Thunderstorm Light Rain
2:53 AM 72.0 °F 71.1 °F 97% 29.85 in 2.5 mi West 5.8 mph - 0.38 in Rain , Thunderstorm Heavy Rain
3:00 AM 72.0 °F 71.1 °F 97% 29.85 in 2.5 mi West 4.6 mph - 0.01 in Rain , Thunderstorm Thunderstorms and Rain
3:07 AM 72.0 °F 71.1 °F 97% 29.85 in 6.0 mi West 6.9 mph - 0.02 in Rain , Thunderstorm Light Thunderstorms and Rain
3:12 AM 72.0 °F 71.1 °F 97% 29.84 in 1.8 mi Variable 3.5 mph - 0.10 in Rain , Thunderstorm Heavy Thunderstorms and Rain
3:23 AM 72.0 °F 71.1 °F 97% 29.83 in 3.0 mi NW 5.8 mph - 0.15 in Rain , Thunderstorm Thunderstorms and Rain
3:28 AM 72.0 °F 71.1 °F 97% 29.83 in 2.5 mi West 3.5 mph - 0.18 in Rain , Thunderstorm Heavy Thunderstorms and Rain
3:31 AM 73.0 °F 71.1 °F 93% 29.83 in 2.5 mi WNW 5.8 mph - 0.20 in Rain Heavy Rain
3:41 AM 73.0 °F 72.0 °F 96% 29.83 in 5.0 mi Calm Calm - 0.20 in Rain Light Rain
3:47 AM 73.4 °F 71.6 °F 94% 29.83 in 5.0 mi Calm Calm - 0.21 in Rain , Thunderstorm Light Thunderstorms and Rain
3:53 AM 73.0 °F 72.0 °F 96% 29.84 in 5.0 mi West 3.5 mph - 0.22 in Rain , Thunderstorm Light Thunderstorms and Rain
4:20 AM 73.0 °F 72.0 °F 96% 29.84 in 3.0 mi SSE 3.5 mph - 0.12 in Rain , Thunderstorm Heavy Thunderstorms and Rain
4:33 AM 73.0 °F 72.0 °F 96% 29.84 in 4.0 mi South 4.6 mph - 0.15 in Rain , Thunderstorm Rain
4:49 AM 73.4 °F 71.6 °F 94% 29.85 in 5.0 mi South 5.8 mph - 0.18 in Rain Rain
4:53 AM 73.0 °F 71.1 °F 93% 29.85 in 5.0 mi Variable 5.8 mph - 0.19 in Rain Light Rain
5:53 AM 72.0 °F 71.1 °F 97% 29.86 in 9.0 mi SSW 5.8 mph - 0.12 in Rain Light Rain
6:53 AM 72.0 °F 71.1 °F 97% 29.88 in 5.0 mi WSW 3.5 mph - 0.09 in Rain Rain
7:05 AM 72.0 °F 71.1 °F 97% 29.90 in 4.0 mi SSW 4.6 mph - 0.03 in Rain Rain
7:26 AM 73.0 °F 71.1 °F 93% 29.90 in 5.0 mi WNW 4.6 mph - 0.07 in Rain Rain
7:35 AM 73.0 °F 72.0 °F 96% 29.90 in 5.0 mi Calm Calm - 0.09 in Rain Light Rain
7:44 AM 73.0 °F 72.0 °F 96% 29.89 in 4.0 mi Calm Calm - 0.11 in Rain Rain
7:53 AM 73.0 °F 71.1 °F 93% 29.90 in 7.0 mi WNW 3.5 mph - 0.11 in Rain Light Rain
8:53 AM 73.9 °F 68.0 °F 82% 29.94 in 10.0 mi WNW 12.7 mph - 0.00 in   Overcast
9:53 AM 75.0 °F 66.9 °F 76% 29.96 in 10.0 mi WNW 10.4 mph 20.7 mph N/A   Overcast
10:53 AM 77.0 °F 66.9 °F 71% 29.95 in 10.0 mi WNW 11.5 mph - N/A   Clear
11:53 AM 79.0 °F 66.0 °F 64% 29.94 in 10.0 mi WNW 15.0 mph 24.2 mph N/A   Clear
12:53 PM 78.1 °F 64.0 °F 62% 29.93 in 10.0 mi WNW 15.0 mph 26.5 mph N/A   Clear
1:53 PM 77.0 °F 64.0 °F 64% 29.93 in 10.0 mi NW 15.0 mph 23.0 mph N/A   Partly Cloudy
2:53 PM 75.9 °F 60.1 °F 58% 29.94 in 10.0 mi WNW 16.1 mph 24.2 mph N/A   Clear
3:53 PM 75.0 °F 61.0 °F 62% 29.94 in 10.0 mi NW 16.1 mph 24.2 mph N/A   Partly Cloudy
4:53 PM 73.9 °F 61.0 °F 64% 29.96 in 10.0 mi NW 16.1 mph 26.5 mph N/A   Partly Cloudy
5:53 PM 73.0 °F 60.1 °F 64% 29.99 in 10.0 mi NW 13.8 mph 24.2 mph N/A   Partly Cloudy
6:53 PM 73.0 °F 60.1 °F 64% 30.01 in 10.0 mi NNW 12.7 mph 21.9 mph N/A   Scattered Clouds
7:53 PM 72.0 °F 57.0 °F 59% 30.04 in 10.0 mi NW 13.8 mph 24.2 mph N/A   Clear
8:53 PM 72.0 °F 60.1 °F 66% 30.06 in 10.0 mi NNW 13.8 mph 23.0 mph N/A   Mostly Cloudy
9:53 PM 71.1 °F 61.0 °F 70% 30.08 in 10.0 mi North 17.3 mph 25.3 mph N/A   Overcast
10:53 PM 69.1 °F 59.0 °F 70% 30.10 in 10.0 mi North 13.8 mph - N/A   Mostly Cloudy
11:53 PM 68.0 °F 57.9 °F 70% 30.11 in 10.0 mi North 12.7 mph - N/A   Clear